Portsmouth, NH

1:17 AM EDT on October 24, 2017 (GMT -0400)
Pease International Tradeport

Weather History for KPSM - July, 2013

Change the Weather History Date:

Wednesday, July 3, 2013

  Actual Average Record
Temperature  
Mean Temperature 72 °F -  
Max Temperature 87 °F 78 °F 95 °F (2002)
Min Temperature 58 °F 59 °F 37 °F (1996)
Cooling Degree Days 8    
Growing Degree Days 22 (Base 50)    
Moisture  
Dew Point 65 °F    
Average Humidity 89    
Maximum Humidity 100    
Minimum Humidity 60    
Precipitation  
Precipitation 0.00 in - - ()
Sea Level Pressure  
Sea Level Pressure 30.17 in    
Wind  
Wind Speed 2 mph (SSW)    
Max Wind Speed 9 mph    
Max Gust Speed -    
Visibility 5 miles    
Events Fog , Rain    
Averages and records for this station are not official NWS values.
T = Trace of Precipitation, MM = Missing Value Source: NWS Daily Summary

Daily Weather History Graph

Daily Weather History Graph

Search for Another Location

Airport or City:

Trip Planner

Search our weather history database for the weather conditions in past years. The results will help you decide how hot, cold, wet, or windy it might be!

Date:

Astronomy

Jul. 03, 2013 Rise Set
Actual Time 5:08 AM EDT 8:26 PM EDT
Civil Twilight 4:33 AM EDT 9:01 PM EDT
Nautical Twilight 3:48 AM EDT 9:46 PM EDT
Astronomical Twilight 2:52 AM EDT 10:42 PM EDT
Moon 1:48 AM EDT (7/3) 4:31 PM EDT (7/3)
Length of Visible Light 16h 27m
Length of Day
15h 17m
Waning Crescent, 18% of the Moon is Illuminated
Jul 3
Waning Crescent
Jul 8
New
Jul 15
First Quarter
Jul 22
Full
Jul 29
Last Quarter

Hourly Weather History & Observations

Time (EDT) Temp. Heat Index Dew Point Humidity Pressure Visibility Wind Dir Wind Speed Gust Speed Precip Events Conditions
12:58 AM 58.5 °F - 58.1 °F 99% 30.20 in 0.5 mi East 1.2 mph - N/A Fog Fog
1:13 AM 59.0 °F - 57.2 °F 94% 30.19 in 0.8 mi Calm Calm - N/A   Overcast
1:58 AM 58.8 °F - 58.5 °F 99% 30.19 in 0.8 mi Calm Calm - N/A   Overcast
2:25 AM 59.0 °F - 59.0 °F 100% 30.17 in 1.2 mi Calm Calm - N/A Rain Light Rain
2:58 AM 58.8 °F - 58.5 °F 99% 30.18 in 3.0 mi SSW 2.3 mph - 0.00 in Rain Light Rain
3:13 AM 59.0 °F - 59.0 °F 100% 30.17 in 3.0 mi South 3.5 mph - N/A   Overcast
3:28 AM 59.0 °F - 59.0 °F 100% 30.17 in 1.5 mi SSW 2.3 mph - N/A   Overcast
3:39 AM 59.0 °F - 59.0 °F 100% 30.17 in 1.5 mi SSW 2.3 mph - N/A Rain Light Rain
3:58 AM 59.2 °F - 58.8 °F 99% 30.18 in 1.5 mi SSW 2.3 mph - 0.00 in Rain Light Rain
4:58 AM 59.5 °F - 59.2 °F 99% 30.18 in 2.5 mi South 2.3 mph - 0.00 in Rain Light Rain
5:43 AM 59.0 °F - 59.0 °F 100% 30.17 in 6.0 mi SSE 3.5 mph - N/A   Overcast
5:44 AM 59.0 °F - 59.0 °F 100% 30.17 in 2.0 mi SSE 3.5 mph - N/A   Overcast
5:58 AM 59.7 °F - 59.5 °F 99% 30.18 in 2.0 mi SSE 3.5 mph - 0.00 in   Overcast
6:58 AM 60.8 °F - 60.4 °F 99% 30.19 in 3.0 mi SSE 2.3 mph - N/A   Overcast
7:58 AM 61.3 °F - 61.0 °F 99% 30.20 in 3.0 mi Calm Calm - N/A   Overcast
8:32 AM 62.6 °F - 62.6 °F 100% 30.20 in 1.5 mi SW 1.2 mph - N/A   Overcast
8:58 AM 63.1 °F - 62.8 °F 99% 30.20 in 1.5 mi Calm Calm - N/A   Overcast
9:43 AM 64.4 °F - 64.4 °F 100% 30.19 in 2.0 mi Variable 2.3 mph - N/A   Overcast
9:58 AM 65.5 °F - 64.4 °F 96% 30.21 in 2.0 mi SW 4.6 mph - N/A   Overcast
10:13 AM 66.2 °F - 64.4 °F 94% 30.19 in 3.0 mi WSW 3.5 mph - N/A   Overcast
10:58 AM 69.8 °F - 65.8 °F 87% 30.21 in 5.0 mi West 3.5 mph - N/A   Overcast
11:14 AM 71.6 °F - 66.2 °F 83% 30.19 in 7.0 mi NW 2.3 mph - N/A   Mostly Cloudy
11:58 AM 72.5 °F - 67.1 °F 83% 30.19 in 6.0 mi Calm Calm - N/A   Haze
12:58 PM 74.8 °F - 68.7 °F 81% 30.18 in 7.0 mi Calm Calm - N/A   Mostly Cloudy
1:58 PM 77.4 °F - 69.3 °F 76% 30.17 in 10.0 mi Variable 2.3 mph - N/A   Mostly Cloudy
2:58 PM 80.2 °F 83.7 °F 71.1 °F 73% 30.16 in 10.0 mi SSE 8.1 mph - N/A   Mostly Cloudy
3:58 PM 83.3 °F 88.7 °F 72.1 °F 69% 30.14 in 10.0 mi SSE 9.2 mph - N/A   Mostly Cloudy
4:58 PM 85.6 °F 92.6 °F 73.2 °F 66% 30.12 in 10.0 mi SW 5.8 mph - N/A   Scattered Clouds
5:58 PM 87.4 °F 94.0 °F 72.1 °F 60% 30.11 in 10.0 mi SW 8.1 mph - N/A   Mostly Cloudy
6:58 PM 85.3 °F 92.2 °F 73.4 °F 67% 30.10 in 10.0 mi SSW 5.8 mph - N/A   Mostly Cloudy
7:58 PM 82.2 °F 86.6 °F 71.2 °F 69% 30.11 in 10.0 mi SSW 6.9 mph - N/A   Scattered Clouds
8:58 PM 79.7 °F - 71.1 °F 75% 30.13 in 10.0 mi SW 4.6 mph - N/A   Scattered Clouds
9:58 PM 77.5 °F - 71.1 °F 80% 30.15 in 10.0 mi SW 4.6 mph - N/A   Scattered Clouds
10:58 PM 76.1 °F - 71.2 °F 85% 30.15 in 10.0 mi South 3.5 mph - N/A   Partly Cloudy
11:58 PM 76.3 °F - 72.1 °F 87% 30.15 in 10.0 mi SW 4.6 mph - N/A   Clear